SL-16 DEB

Satellite information

Favourite Embed

Satellite Type and Status

DEBRISIN ORBIT

Key statistics

Satellite SL-16 DEB at a glance.

Uptime

11937

Days in orbit

Revolutions

≈ 14.0

Per day

Orbit

LEO

Low Earth Orbit

Inclination

71.2

Latest

Satellite identification and parameters

Extended collection of information and parameters for SL-16 DEB.

Object identification

Identified? True

Debris? True

Object name: SL-16 DEB

International designator: 1992-093DP

Object number (NORAD): 22422

Object ID (CCSDS): 22422

Country: COMMONWEALTH OF INDEPENDENT STATES (CIS)

Current information (Y/N): Y

RCS size: SMALL

Orbital parameters

Period: 102.83 minutes

Inclination: 71.1813 deg

SMA: 7270.642 km

Apoapsis: 958.589 km

Periapsis: 826.425 km

RAAN: 260.9698 deg

Eccentricy: 0.00908893

Argument of periapsis: 154.1186 deg

Mean anomaly: 325.7394 deg

Mean motion: 14.00372683 rev/day

Mean motion (dot): 0.00000336 rev/day2

B* drag term: 0.00024744784 1/REarth

Two-line elements (TLE)

Creation date: Aug. 31, 2025, 2:26 a.m.

Reference frame: TEME

Reference center: EARTH

Epoch: Aug. 30, 2025, 12:01 p.m. UTC

TLE line 0: 0 SL-16 DEB

TLE line 1: 1 22422U 92093DP 25242.50079771 .00000336 00000-0 24745-3 0 9993

TLE line 2: 2 22422 71.1813 260.9698 0090889 154.1186 325.7394 14.00372683663692

Live tracking on map

Real-time ground track for satellite SL-16 DEB.

In-orbit conjunctions

A list of the most updated potential collisions computed for object SL-16 DEB.

Target Orbit TCA Probability of collision Miss distance Type
METEOR 1-16 LEO 2025-07-19 14:11:41 0.001087214 133.0 (m) PAYLOAD
OPS 5798 DEB SSO 2025-06-03 17:07:48 0.0001320471 46.0 (m) DEBRIS
CZ-6A DEB SSO 2025-03-09 04:54:39 0.0001134529 153.0 (m) DEBRIS
THORAD AGENA D DEB SSO 2024-11-23 19:16:07 0.0001387553 161.0 (m) DEBRIS
CZ-4 DEB SSO 2024-11-13 08:29:12 0.0004547586 287.0 (m) DEBRIS

Associated space launch

Second generation ELING satellite

SL-16 DEB was lifted into orbit during the mission ‘Zenit-2 | Tselina-2 12’, on board a Zenit-2 space rocket.

The launch took place on Dec. 25, 1992, 5:56 a.m. from 45/1.

For more information about the launch, click the button.

Launch to space Zenit-2 | Tselina-2 12
Zenit-2 | Tselina-2 12

Agency: N/A

Status: Launch Successful

Launch date: Dec. 25, 1992, 5:56 a.m. UTC

Rocket: Zenit-2

Launch pad: 45/1

Location: Baikonur Cosmodrome, Republic of Kazakhstan

...

Latest news about this satellite

There are no fresh news available about this satellite. Check back as we update our databases every day.


Newsletter sign-up

Weekly statistics, charts and insights to help you stay on top of the space industry.